sat.trackr.live / text

‹ back to catalog

STARLINK-2021

NORAD 47604 · 2021-009BJ

PAYLOAD ACTIVE UNKNOWN

§ Identity

Operator
Country
US
Launch date
2021-02-04
Launch site
AFETR
Launch vehicle
Mass (kg)
RCS (m²)

Purposes: comms

External: N2YO · Heavens-Above · Gunter

§ Orbital elements

Epoch: 2026-07-02T23:12:28.346400Z

Period
87.44 min
Inclination
53.0149°
Eccentricity
0.0007253
Mean motion
16.46815220 rev/d
Perigee alt
143.0 km
Apogee alt
152.5 km
Semi-major
6,525.9 km
B*
2.2776e-4
RAAN
115.2537°
Arg perigee
249.4508°
Mean anomaly
110.5763°
Rev number
29,969

§ Raw data

STARLINK-20211 47604U 21009BJ  26183.96699475  .11789621  12510-4  22776-3 0  99932 47604  53.0149 115.2537 0007253 249.4508 110.5763 16.46815220299691

JSON: /api/v1/satellites/47604 · /tle

For live sub-satellite position, see the globe view (requires WebGL).

§ Visibility from observer

Set your observer location to see the next 7 days of passes ≥ 10°. The values pass through the URL so the page stays shareable.

No JS? Fill the form by hand. The geolocation button needs JavaScript.